Home   Weather   Passo Fundo   Past weeks
Flag for Brazil

Past Weather in Passo Fundo, Rio Grande do Sul, Brazil — Yesterday and Last 2 Weeks

Now
66 °F

Mostly cloudy.


Feels Like: 66 °F
Forecast: 67 / 59 °F
Wind: 6 mph from Southwest

Location: Porto Alegre Aero-Porto

Current Time: May 22, 2019 at 5:55:48 am

Latest Report: May 22, 2019 at 5:16 am


Visibility: 5 mi

Pressure: 29.95 "Hg (27.66 "Hg at 680m altitude)

Humidity: 100%

Dew Point: 66 °F

Location of Passo FundoLocation

Past Weather in Passo Fundo — Graph

°F

Passo Fundo Temperature Yesterday

Maximum temperature yesterday: 72 °F (at 4:00 pm)
Minimum temperature yesterday: 64 °F (at 8:00 am)
Average temperature yesterday: 68 °F

High & Low Weather Summary for the Past Weeks

 TemperatureHumidityPressure
High81 °F (May 19, 3:00 pm)100% (May 7, 4:00 am)30.33 "Hg (May 7, 4:00 am)
Low32 °F (May 10, 9:37 am)48% (May 19, 1:00 pm)29.71 "Hg (May 10, 3:00 pm)
Average67 °F86%30.05 "Hg
* Reported May 7 4:00 am — May 22 4:00 am, Passo Fundo. Weather by CustomWeather, © 2019

Note: Actual official high and low records may vary slightly from our data, if they occured in-between our weather recording intervals... More about our weather records

Advertising

Passo Fundo Weather History for the Previous 24 Hours

Scroll right to see more
 ConditionsComfort  
Time TempWeatherWind HumidityBarometerVisibility
4:00 am
Wed, May 22
66 °FLight rain. Mostly cloudy.2 mph100%29.95 "Hg4 mi
3:00 am66 °FLight rain. Mostly cloudy.No wind100%29.95 "Hg3 mi
2:00 am66 °FLight rain. Mostly cloudy.3 mph100%29.95 "Hg5 mi
1:00 am68 °FMostly cloudy.3 mph94%29.95 "HgN/A
12:00 am68 °FPartly cloudy.1 mph94%29.95 "HgN/A
11:00 pm
Tue, May 21
68 °FPassing clouds.5 mph94%29.95 "HgN/A
10:00 pm68 °FPassing clouds.3 mph94%29.95 "HgN/A
9:00 pm70 °FPassing clouds.5 mph83%29.92 "HgN/A
8:00 pm68 °FPassing clouds.2 mph94%29.92 "HgN/A
7:00 pm68 °FPassing clouds.3 mph94%29.92 "HgN/A
6:00 pm70 °FPassing clouds.6 mph88%29.92 "HgN/A
5:00 pm70 °FPassing clouds.6 mph83%29.89 "HgN/A
4:00 pm72 °FSunny.5 mph78%29.89 "Hg10 mi
3:00 pm70 °FPassing clouds.8 mph83%29.89 "HgN/A
2:00 pm70 °FPartly sunny.10 mph83%29.89 "HgN/A
1:00 pm68 °FPartly sunny.6 mph94%29.92 "HgN/A
12:00 pm68 °FBroken clouds.5 mph94%29.95 "Hg5 mi
11:37 am68 °FMostly cloudy.8 mph94%29.95 "Hg4 mi
11:00 am66 °FLight rain. Mostly cloudy.10 mph100%29.95 "Hg3 mi
10:00 am66 °FLight rain. Mostly cloudy.12 mph94%29.92 "Hg2 mi
9:00 am64 °FLight rain. Broken clouds.10 mph100%29.95 "Hg2 mi
8:00 am64 °FRain. Mostly cloudy.2 mph100%29.98 "Hg2 mi
7:00 am66 °FLight rain. Fog.8 mph88%29.95 "Hg2 mi
6:00 am68 °FLight rain. Fog.9 mph100%29.95 "Hg2 mi
5:00 am68 °FFog.14 mph100%29.92 "Hg2 mi
Weather by CustomWeather, © 2019

See weather overview